Weather History for Southport, NC

Change the Weather History Date:

Wednesday, August 28, 2013

  Actual Average (KILM) Record (KILM)
Temperature  
Mean Temperature 80 °F 79 °F  
Max Temperature 85 °F 87 °F 97 °F (1903)
Min Temperature 76 °F 70 °F 56 °F (1874)
Degree Days  
Heating Degree Days 0 0  
Month to date heating degree days 0  
Since 1 June heating degree days 2  
Since 1 July heating degree days 0  
Cooling Degree Days 16 14  
Month to date cooling degree days 417  
Year to date cooling degree days 1584  
Since 1 June cooling degree days 1303  
Growing Degree Days 30 (Base 50)    
Moisture  
Dew Point 71 °F    
Average Humidity 74    
Maximum Humidity 84    
Minimum Humidity 66    
Precipitation  
Precipitation 0.00 in 0.24 in 3.83 in (2002)
Month to date precipitation 6.68  
Year to date precipitation 38.24  
Sea Level Pressure  
Sea Level Pressure 29.98 in    
Wind  
Wind Speed 8 mph (WSW)    
Max Wind Speed 12 mph    
Max Gust Speed 16 mph    
Visibility 10 miles    
Events      
T = Trace of Precipitation, MM = Missing Value Source: NWS Daily Summary

Daily Weather History Graph

Daily Weather History Graph

Search for Another Location

Airport:

Trip Planner

Search our weather history database for the weather conditions in past years. The results will help you decide how hot, cold, wet, or windy it might be!

Date:

Astronomy

Aug. 28, 2013 Rise Set
Actual Time 6:43 AM EDT 7:42 PM EDT
Civil Twilight 6:17 AM EDT 8:08 PM EDT
Nautical Twilight 5:47 AM EDT 8:38 PM EDT
Astronomical Twilight 5:15 AM EDT 9:10 PM EDT
Moon No Moon Rise 2:11 PM EDT (8/28)
Length of Visible Light 13h 50m
Length of Day
12h 59m
Waning Gibbous, 47% of the Moon is Illuminated
Aug 28
Waning Gibbous
Sep 5
New
Sep 12
First Quarter
Sep 19
Full
Sep 26
Last Quarter

Hourly Weather History & Observations

Time (EDT) Temp. Heat Index Dew Point Humidity Pressure Visibility Wind Dir Wind Speed Gust Speed Precip Events Conditions
12:15 AM 77.4 °F - 65.3 °F 66% 30.03 in 10.0 mi SW 8.1 mph - N/A   Clear
12:35 AM 77.0 °F - 65.5 °F 67% 30.03 in 10.0 mi SW 6.9 mph - N/A   Clear
12:55 AM 77.0 °F - 66.4 °F 70% 30.03 in 10.0 mi WSW 6.9 mph - N/A   Clear
1:15 AM 77.0 °F - 66.4 °F 70% 30.02 in 10.0 mi SW 5.8 mph - N/A   Clear
1:35 AM 77.0 °F - 66.6 °F 70% 30.01 in 10.0 mi SW 8.1 mph - N/A   Clear
1:55 AM 77.0 °F - 66.7 °F 70% 30.01 in 10.0 mi SW 8.1 mph - N/A   Scattered Clouds
2:15 AM 77.2 °F - 67.1 °F 71% 30.01 in 10.0 mi WSW 8.1 mph - N/A   Scattered Clouds
2:35 AM 77.0 °F - 66.7 °F 70% 30.00 in 10.0 mi WSW 8.1 mph - N/A   Scattered Clouds
2:55 AM 77.0 °F - 67.1 °F 71% 30.00 in 10.0 mi WSW 6.9 mph - N/A   Scattered Clouds
3:15 AM 77.0 °F - 67.1 °F 71% 29.99 in 10.0 mi WSW 9.2 mph 16.1 mph N/A   Scattered Clouds
3:35 AM 76.8 °F - 67.5 °F 73% 29.99 in 10.0 mi WSW 10.4 mph - N/A   Clear
3:55 AM 76.6 °F - 68.0 °F 75% 29.99 in 10.0 mi WSW 8.1 mph - N/A   Scattered Clouds
4:15 AM 76.3 °F - 67.6 °F 74% 29.98 in 10.0 mi WSW 8.1 mph - N/A   Scattered Clouds
4:35 AM 76.1 °F - 67.6 °F 75% 29.98 in 10.0 mi WSW 5.8 mph - N/A   Clear
4:55 AM 76.1 °F - 67.6 °F 75% 29.99 in 10.0 mi West 6.9 mph - N/A   Scattered Clouds
5:15 AM 76.1 °F - 68.0 °F 76% 29.98 in 10.0 mi WSW 8.1 mph - N/A   Scattered Clouds
5:35 AM 76.1 °F - 68.9 °F 78% 29.98 in 10.0 mi West 9.2 mph - N/A   Clear
5:55 AM 76.1 °F - 68.7 °F 78% 29.99 in 10.0 mi West 6.9 mph - N/A   Clear
6:15 AM 76.1 °F - 69.3 °F 79% 29.99 in 10.0 mi West 5.8 mph - N/A   Clear
6:35 AM 76.1 °F - 69.6 °F 80% 29.99 in 10.0 mi WSW 5.8 mph - N/A   Clear
6:55 AM 76.1 °F - 69.6 °F 80% 29.99 in 10.0 mi WSW 6.9 mph - N/A   Clear
7:15 AM 76.1 °F - 69.6 °F 80% 30.00 in 10.0 mi WSW 6.9 mph - N/A   Clear
7:35 AM 76.1 °F - 68.5 °F 77% 30.00 in 10.0 mi WSW 8.1 mph - N/A   Clear
7:55 AM 76.6 °F - 69.3 °F 78% 30.00 in 10.0 mi WSW 6.9 mph - N/A   Clear
8:15 AM 77.0 °F - 69.8 °F 78% 30.00 in 10.0 mi WSW 10.4 mph - N/A   Clear
8:35 AM 77.0 °F - 70.0 °F 79% 30.00 in 10.0 mi WSW 9.2 mph - N/A   Clear
8:55 AM 79.0 °F - 70.9 °F 76% 30.00 in 10.0 mi WSW 9.2 mph - N/A   Clear
9:15 AM 79.3 °F - 70.7 °F 75% 30.00 in 10.0 mi WSW 10.4 mph - N/A   Clear
9:35 AM 80.1 °F 83.4 °F 70.7 °F 73% 30.00 in 10.0 mi West 10.4 mph - N/A   Clear
9:55 AM 81.0 °F 84.9 °F 71.2 °F 72% 30.00 in 10.0 mi SW 10.4 mph - N/A   Clear
10:15 AM 81.3 °F 85.4 °F 71.2 °F 71% 30.01 in 10.0 mi SW 5.8 mph - N/A   Clear
10:35 AM 82.0 °F 86.7 °F 71.6 °F 71% 30.01 in 7.0 mi SW 8.1 mph - N/A   Clear
10:55 AM 82.8 °F 87.7 °F 71.8 °F 69% 30.00 in 10.0 mi SSW 6.9 mph - N/A   Clear
11:15 AM 83.7 °F 89.4 °F 72.3 °F 69% 30.01 in 10.0 mi SW 6.9 mph - N/A   Clear
11:35 AM 82.6 °F 87.6 °F 71.8 °F 70% 30.00 in 10.0 mi SSW 8.1 mph - N/A   Clear
11:55 AM 82.6 °F 88.1 °F 72.7 °F 72% 30.00 in 10.0 mi WSW 8.1 mph - N/A   Clear
12:15 PM 84.7 °F 91.0 °F 72.5 °F 67% 30.00 in 10.0 mi SW 8.1 mph - N/A   Clear
12:35 PM 82.9 °F 88.5 °F 72.5 °F 71% 30.00 in 10.0 mi SW 8.1 mph - N/A   Clear
12:55 PM 82.4 °F 87.4 °F 72.0 °F 71% 30.00 in 10.0 mi WSW 9.2 mph - N/A   Clear
1:15 PM 83.3 °F 89.0 °F 72.7 °F 70% 30.00 in 10.0 mi WSW 8.1 mph - N/A   Clear
1:35 PM 84.7 °F 91.0 °F 72.5 °F 67% 30.00 in 10.0 mi SSW 8.1 mph - N/A   Clear
1:55 PM 84.7 °F 91.0 °F 72.9 °F 67% 30.00 in 10.0 mi WSW 9.2 mph - N/A   Clear
2:15 PM 84.9 °F 91.4 °F 72.9 °F 67% 29.99 in 10.0 mi SW 11.5 mph - N/A   Clear
2:35 PM 85.1 °F 91.5 °F 72.7 °F 66% 29.98 in 10.0 mi SW 9.2 mph - N/A   Clear
2:55 PM 85.5 °F 92.6 °F 73.4 °F 67% 29.98 in 10.0 mi SW 8.1 mph - N/A   Clear
3:15 PM 84.6 °F 92.1 °F 74.1 °F 71% 29.97 in 10.0 mi SW 11.5 mph - N/A   Clear
3:35 PM 84.6 °F 91.0 °F 73.0 °F 68% 29.97 in 10.0 mi SW 9.2 mph - N/A   Clear
3:55 PM 83.7 °F 90.4 °F 73.6 °F 72% 29.97 in 10.0 mi SW 9.2 mph - N/A   Clear
4:15 PM 84.4 °F 91.7 °F 74.1 °F 71% 29.96 in 10.0 mi SW 8.1 mph - N/A   Clear
4:35 PM 84.2 °F 91.6 °F 74.1 °F 72% 29.96 in 10.0 mi SW 9.2 mph 16.1 mph N/A   Clear
4:55 PM 83.7 °F 90.4 °F 73.6 °F 72% 29.95 in 10.0 mi SW 9.2 mph - N/A   Clear
5:15 PM 83.1 °F 89.5 °F 73.6 °F 73% 29.95 in 10.0 mi SW 6.9 mph - N/A   Clear
5:35 PM 82.6 °F 88.6 °F 73.4 °F 74% 29.95 in 10.0 mi WSW 10.4 mph - N/A   Clear
5:55 PM 81.7 °F 86.9 °F 73.2 °F 75% 29.94 in 10.0 mi SW 9.2 mph - N/A   Clear
6:15 PM 81.5 °F 86.7 °F 73.4 °F 76% 29.94 in 10.0 mi WSW 10.4 mph - N/A   Clear
6:35 PM 81.1 °F 86.2 °F 73.4 °F 77% 29.94 in 10.0 mi WSW 9.2 mph - N/A   Clear
6:55 PM 81.0 °F 85.8 °F 73.2 °F 77% 29.94 in 10.0 mi WSW 8.1 mph - N/A   Clear
7:15 PM 80.6 °F 85.4 °F 73.4 °F 79% 29.95 in 10.0 mi SW 8.1 mph - N/A   Clear
7:35 PM 80.2 °F 84.7 °F 73.4 °F 80% 29.95 in 10.0 mi SW 6.9 mph - N/A   Clear
7:55 PM 79.9 °F - 73.4 °F 80% 29.95 in 10.0 mi SW 5.8 mph - N/A   Clear
8:15 PM 79.7 °F - 73.0 °F 80% 29.95 in 10.0 mi SW 8.1 mph - N/A   Clear
8:35 PM 79.7 °F - 72.5 °F 79% 29.96 in 10.0 mi WSW 6.9 mph - N/A   Clear
8:55 PM 79.7 °F - 72.9 °F 80% 29.95 in 10.0 mi SW 8.1 mph - N/A   Clear
9:15 PM 79.7 °F - 72.9 °F 80% 29.96 in 10.0 mi WSW 9.2 mph - N/A   Clear
9:35 PM 79.7 °F - 72.7 °F 79% 29.96 in 10.0 mi WSW 6.9 mph - N/A   Clear
9:55 PM 79.7 °F - 72.5 °F 79% 29.95 in 10.0 mi WSW 10.4 mph - N/A   Clear
10:15 PM 79.7 °F - 72.5 °F 79% 29.95 in 10.0 mi WSW 9.2 mph - N/A   Clear
10:35 PM 79.7 °F - 72.9 °F 80% 29.95 in 10.0 mi WSW 9.2 mph - N/A   Clear
10:55 PM 79.7 °F - 72.9 °F 80% 29.95 in 10.0 mi WSW 6.9 mph - N/A   Clear
11:15 PM 79.7 °F - 73.4 °F 81% 29.96 in 10.0 mi WSW 8.1 mph - N/A   Clear
11:35 PM 79.3 °F - 73.8 °F 83% 29.95 in 10.0 mi WSW 10.4 mph - N/A   Clear
11:55 PM 79.3 °F - 74.3 °F 84% 29.95 in 10.0 mi WSW 11.5 mph 16.1 mph N/A   Clear